FW7582 Weather Reports


Display with metric or nautical units.
time (UTC)temp
F
wind
direction
speed
MPH
gust
MPH
rain 1hr
in
rain 24hr
in
rain mn
in
humidity
%
barometer
mb
20260506231417 55 3 0.0 0.0 0.00 0.00 0.00 86 1023.9
20260506230914 55 26 0.0 0.0 0.00 0.00 0.00 86 1023.9
20260506230411 55 17 0.0 0.0 0.00 0.00 0.00 85 1024.1
20260506225907 55 334 0.0 0.0 0.00 0.00 0.00 85 1024.1
20260506225404 55 337 0.0 2.0 0.00 0.00 0.00 85 1024.1
20260506224901 55 344 0.0 1.0 0.00 0.00 0.00 85 1024.1
20260506224359 55 357 0.0 0.0 0.00 0.00 0.00 88 1023.8
20260506223855 55 268 0.0 1.0 0.00 0.00 0.00 85 1024.0
20260506223350 55 92 0.0 1.0 0.00 0.00 0.00 86 1024.2
20260506222848 55 290 1.0 2.0 0.00 0.00 0.00 88 1024.1
20260506222343 55 350 0.0 0.0 0.00 0.00 0.00 89 1024.1
20260506221841 55 337 0.0 0.0 0.00 0.00 0.00 89 1024.1
20260506221338 55 170 0.0 0.0 0.00 0.00 0.00 89 1024.2
20260506220836 55 16 0.0 0.0 0.00 0.00 0.00 90 1024.0
20260506220331 55 337 0.0 0.0 0.00 0.00 0.00 89 1024.1
20260506215828 55 208 0.0 1.0 0.00 0.00 0.00 92 1024.3
20260506215324 54 283 0.0 1.0 0.00 0.00 0.00 92 1024.1
20260506214820 54 13 0.0 0.0 0.00 0.00 0.00 93 1024.1
20260506214317 54 345 0.0 0.0 0.00 0.00 0.00 93 1024.1
20260506213815 55 357 0.0 0.0 0.00 0.00 0.00 93 1024.4
20260506213312 55 350 0.0 0.0 0.00 0.00 0.00 92 1024.2
20260506212810 55 341 0.0 0.0 0.00 0.00 0.00 91 1024.3
20260506212306 55 313 0.0 0.0 0.00 0.00 0.00 90 1024.2
20260506211800 55 349 0.0 0.0 0.00 0.00 0.00 91 1024.1
20260506211256 55 353 0.0 0.0 0.00 0.00 0.00 91 1024.3
20260506210754 55 337 0.0 0.0 0.00 0.00 0.00 90 1023.9
20260506210251 55 3 0.0 0.0 0.00 0.00 0.00 90 1023.9
20260506205748 55 10 0.0 0.0 0.00 0.00 0.00 90 1023.9
20260506205243 56 344 0.0 0.0 0.00 0.00 0.00 91 1023.9
20260506204740 55 354 0.0 0.0 0.00 0.00 0.00 91 1024.1
20260506204238 55 351 0.0 0.0 0.00 0.00 0.00 91 1024.1
20260506203736 56 20 0.0 0.0 0.00 0.00 0.00 90 1023.8
20260506203232 56 359 0.0 0.0 0.00 0.00 0.00 90 1023.9
20260506202730 56 315 0.0 1.0 0.00 0.00 0.00 89 1024.0
20260506202226 57 337 0.0 0.0 0.00 0.00 0.00 88 1024.0
20260506201723 57 28 0.0 0.0 0.00 0.00 0.00 87 1023.7
20260506201220 57 309 0.0 0.0 0.00 0.00 0.00 87 1024.0
20260506200717 57 344 0.0 0.0 0.00 0.00 0.00 87 1023.9
20260506200214 57 308 0.0 0.0 0.00 0.00 0.00 87 1023.6
20260506195710 57 266 0.0 0.0 0.00 0.00 0.00 86 1023.6
20260506195207 57 285 0.0 0.0 0.00 0.00 0.00 88 1023.8
20260506194704 57 343 0.0 0.0 0.00 0.00 0.00 87 1023.7
20260506194200 57 347 0.0 3.0 0.00 0.00 0.00 86 1023.7
20260506193658 57 109 1.0 2.0 0.00 0.00 0.00 87 1023.6
20260506193155 57 321 0.0 1.0 0.00 0.00 0.00 88 1023.7
20260506192652 57 296 0.0 1.0 0.00 0.00 0.00 87 1023.3
20260506192148 57 31 0.0 0.0 0.00 0.00 0.00 87 1023.6
20260506191645 57 324 0.0 1.0 0.00 0.00 0.00 88 1023.5
20260506191141 56 277 1.0 2.0 0.00 0.00 0.00 88 1023.6
20260506190638 56 327 0.0 0.0 0.00 0.00 0.00 89 1023.7
20260506190135 56 283 0.0 0.0 0.00 0.00 0.00 90 1023.6
20260506185632 56 6 0.0 0.0 0.00 0.00 0.00 90 1023.4
20260506185128 55 314 0.0 1.0 0.00 0.00 0.00 90 1023.7
20260506184626 55 205 0.0 1.0 0.00 0.00 0.00 89 1023.5
20260506184123 56 228 1.0 2.0 0.00 0.00 0.00 89 1023.5
20260506183619 56 359 0.0 0.0 0.00 0.00 0.00 90 1023.6
20260506183115 56 357 0.0 1.0 0.00 0.00 0.00 90 1023.5
20260506182613 56 220 0.0 2.0 0.00 0.00 0.00 89 1023.5
20260506182110 56 129 1.0 2.0 0.00 0.00 0.00 89 1023.4
20260506181608 56 221 0.0 4.0 0.00 0.00 0.00 89 1023.4
20260506181105 56 283 1.0 2.0 0.00 0.00 0.00 89 1023.1
20260506180601 56 187 0.0 2.0 0.00 0.00 0.00 90 1023.2
20260506180058 56 318 0.0 2.0 0.00 0.00 0.00 91 1023.3
20260506175554 56 269 0.0 2.0 0.00 0.00 0.00 90 1023.2
20260506175050 55 329 0.0 3.0 0.00 0.00 0.00 91 1023.2
20260506174549 55 1 1.0 1.0 0.00 0.00 0.00 91 1023.3
20260506174045 55 280 0.0 2.0 0.00 0.00 0.00 92 1023.5
20260506173543 55 37 0.0 1.0 0.00 0.00 0.00 92 1023.4
20260506173039 55 17 0.0 0.0 0.00 0.00 0.00 93 1023.5
20260506172537 55 276 0.0 3.0 0.00 0.00 0.00 91 1023.4
20260506172033 55 117 0.0 2.0 0.00 0.00 0.00 93 1023.5
20260506171531 55 10 0.0 0.0 0.00 0.00 0.00 92 1023.3
20260506171023 55 175 2.0 3.0 0.00 0.00 0.00 92 1023.3
20260506170520 55 236 1.0 3.0 0.00 0.00 0.00 92 1023.3
20260506170017 55 201 1.0 2.0 0.00 0.00 0.00 91 1023.1
20260506165516 56 278 0.0 0.0 0.00 0.00 0.00 91 1023.1
20260506165011 56 320 1.0 1.0 0.00 0.00 0.00 92 1023.1
20260506164508 55 155 2.0 3.0 0.00 0.00 0.00 91 1022.9
20260506164006 55 198 1.0 2.0 0.00 0.00 0.00 91 1023.0
20260506163501 56 207 0.0 2.0 0.00 0.00 0.00 92 1022.7
20260506162955 56 297 1.0 2.0 0.00 0.00 0.00 92 1022.6
20260506162454 55 357 0.0 1.0 0.00 0.00 0.00 92 1022.5
20260506161951 55 344 0.0 1.0 0.00 0.00 0.00 92 1022.6
20260506161449 55 288 1.0 2.0 0.00 0.00 0.00 93 1022.9
20260506160941 55 217 2.0 2.0 0.00 0.00 0.00 92 1022.4
20260506160438 55 277 1.0 2.0 0.00 0.00 0.00 92 1022.7
20260506155935 54 200 1.0 3.0 0.00 0.00 0.00 92 1022.9
20260506155433 54 151 1.0 2.0 0.00 0.00 0.00 92 1022.8
20260506153559 54 33 0.0 0.0 0.00 0.00 0.00 94 1023.0
20260506153057 54 191 0.0 1.0 0.00 0.00 0.00 94 1022.8
20260506152554 54 0 0.0 1.0 0.00 0.00 0.00 94 1023.0
20260506152052 54 337 0.0 0.0 0.00 0.00 0.00 94 1022.6
20260506151549 54 344 0.0 0.0 0.00 0.00 0.00 95 1022.6
20260506151046 54 4 0.0 0.0 0.00 0.00 0.00 95 1022.6
20260506150543 54 198 0.0 0.0 0.00 0.00 0.00 97 1022.7
20260506150040 54 357 0.0 0.0 0.00 0.00 0.00 98 1022.9
20260506145536 54 350 0.0 0.0 0.00 0.00 0.00 98 1022.9
20260506145034 54 351 0.0 0.0 0.00 0.00 0.00 98 1022.8
20260506144530 53 351 0.0 0.0 0.00 0.00 0.00 98 1022.8
20260506144028 53 351 0.0 0.0 0.00 0.00 0.00 98 1023.0
20260506143526 53 351 0.0 0.0 0.00 0.00 0.00 99 1022.8
20260506143024 53 351 0.0 0.0 0.00 0.00 0.00 99 1022.4
20260506142521 53 351 0.0 0.0 0.00 0.00 0.00 99 1022.6
20260506142019 53 351 0.0 0.0 0.00 0.00 0.00 99 1022.6
20260506141517 53 351 0.0 0.0 0.00 0.00 0.00 99 1022.5
20260506141015 53 351 0.0 0.0 0.00 0.00 0.00 99 1022.7
20260506140512 53 351 0.0 0.0 0.00 0.00 0.00 99 1022.6
20260506140009 53 351 0.0 0.0 0.00 0.00 0.00 99 1022.6
20260506135506 53 351 0.0 0.0 0.00 0.00 0.00 99 1022.4
20260506135002 53 349 0.0 0.0 0.00 0.00 0.00 99 1022.6
20260506134458 53 349 0.0 0.0 0.00 0.00 0.00 99 1022.4
20260506133954 53 349 0.0 0.0 0.00 0.00 0.00 99 1022.3
20260506133452 53 349 0.0 0.0 0.00 0.00 0.00 99 1022.4
20260506132948 53 349 0.0 0.0 0.00 0.00 0.00 99 1022.4
20260506132446 53 349 0.0 0.0 0.00 0.00 0.00 99 1022.3
20260506131943 53 350 0.0 0.0 0.00 0.00 0.00 99 1021.9
20260506131439 53 350 0.0 0.0 0.00 0.00 0.00 99 1022.0
20260506130936 52 350 0.0 0.0 0.00 0.00 0.00 99 1022.1
20260506130433 52 350 0.0 0.0 0.00 0.00 0.00 99 1022.3
20260506125931 52 350 0.0 0.0 0.00 0.00 0.00 99 1022.1
20260506125429 52 350 0.0 0.0 0.00 0.00 0.00 99 1022.3
20260506124927 52 350 0.0 0.0 0.00 0.00 0.00 99 1022.2
20260506124424 52 350 0.0 0.0 0.00 0.00 0.00 99 1022.0
20260506123922 52 350 0.0 0.0 0.00 0.00 0.00 99 1022.2
20260506123420 52 350 0.0 0.0 0.00 0.00 0.00 99 1021.7
20260506122917 52 350 0.0 0.0 0.00 0.00 0.00 99 1022.0
20260506122414 52 350 0.0 0.0 0.00 0.00 0.00 99 1021.9
20260506121912 52 350 0.0 0.0 0.00 0.00 0.00 99 1022.0
20260506121409 52 350 0.0 0.0 0.00 0.00 0.00 99 1022.0
20260506120906 52 350 0.0 0.0 0.00 0.00 0.00 99 1021.9
20260506120403 52 350 0.0 0.0 0.00 0.00 0.00 99 1021.6
20260506115900 52 350 0.0 0.0 0.00 0.00 0.00 99 1021.7
20260506115358 52 350 0.0 0.0 0.00 0.00 0.00 99 1021.5
20260506114856 52 350 0.0 0.0 0.00 0.00 0.00 99 1021.5
20260506114353 52 350 0.0 0.0 0.00 0.00 0.00 99 1021.6
20260506113853 52 350 0.0 0.0 0.00 0.00 0.00 99 1021.6
20260506113349 52 350 0.0 0.0 0.00 0.00 0.00 99 1021.5
20260506112846 52 350 0.0 0.0 0.00 0.00 0.00 99 1021.5
20260506112343 52 350 0.0 0.0 0.00 0.00 0.00 99 1021.4
20260506111840 52 349 0.0 0.0 0.00 0.00 0.00 99 1021.6
20260506111338 52 349 0.0 0.0 0.00 0.00 0.00 99 1021.4
20260506110836 52 349 0.0 0.0 0.00 0.00 0.00 99 1021.5
20260506110333 52 349 0.0 0.0 0.00 0.00 0.00 99 1021.4
20260506105830 52 348 0.0 0.0 0.00 0.00 0.00 99 1021.5
20260506105326 52 348 0.0 0.0 0.00 0.00 0.00 99 1021.2
20260506104823 52 348 0.0 0.0 0.00 0.00 0.00 99 1021.1
20260506104321 51 348 0.0 0.0 0.00 0.00 0.00 99 1021.0
20260506103819 51 349 0.0 0.0 0.00 0.00 0.00 99 1021.4
20260506103316 51 349 0.0 0.0 0.00 0.00 0.00 99 1021.0
20260506102813 51 349 0.0 0.0 0.00 0.00 0.00 99 1021.0
20260506102311 51 349 0.0 0.0 0.00 0.00 0.00 99 1021.2
20260506101808 51 349 0.0 0.0 0.00 0.00 0.00 99 1021.0
20260506101304 51 349 0.0 0.0 0.00 0.00 0.00 99 1021.0
20260506100802 51 349 0.0 0.0 0.00 0.00 0.00 99 1020.8
20260506100300 51 349 0.0 0.0 0.00 0.00 0.00 99 1020.9
20260506095758 51 349 0.0 0.0 0.00 0.00 0.00 99 1020.8
20260506095255 51 349 0.0 0.0 0.00 0.00 0.00 99 1020.8
20260506094751 51 349 0.0 0.0 0.00 0.00 0.00 99 1020.8
20260506094250 51 349 0.0 0.0 0.00 0.00 0.00 99 1020.6
20260506093748 51 349 0.0 0.0 0.00 0.00 0.00 99 1021.0
20260506093245 50 349 0.0 0.0 0.00 0.00 0.00 99 1020.7
20260506092743 50 350 0.0 0.0 0.00 0.00 0.00 99 1020.7
20260506092241 50 350 0.0 0.0 0.00 0.00 0.00 99 1020.4
20260506091738 50 350 0.0 0.0 0.00 0.00 0.00 99 1020.4
20260506091235 50 350 0.0 0.0 0.00 0.00 0.00 99 1020.4
20260506090733 50 350 0.0 0.0 0.00 0.00 0.00 99 1020.6
20260506090229 50 351 0.0 0.0 0.00 0.00 0.00 99 1020.3
20260506085726 50 351 0.0 0.0 0.00 0.00 0.00 99 1020.3
20260506085223 50 350 0.0 0.0 0.00 0.00 0.00 99 1020.3
20260506084719 50 350 0.0 0.0 0.00 0.00 0.00 99 1020.4
20260506084215 50 350 0.0 0.0 0.00 0.00 0.00 99 1020.1
20260506083713 50 350 0.0 0.0 0.00 0.00 0.00 99 1020.1
20260506083210 50 350 0.0 0.0 0.00 0.00 0.00 99 1020.2
20260506082707 49 351 0.0 0.0 0.00 0.00 0.00 99 1020.3
20260506082203 49 351 0.0 0.0 0.00 0.00 0.00 99 1020.3
20260506081701 49 351 0.0 0.0 0.00 0.00 0.00 99 1020.2
20260506081158 49 351 0.0 0.0 0.00 0.00 0.00 99 1020.1
20260506080656 49 351 0.0 0.0 0.00 0.00 0.00 99 1020.2
20260506080152 49 351 0.0 0.0 0.00 0.00 0.00 99 1020.3
20260506073136 50 351 0.0 0.0 0.00 0.00 0.00 99 1020.2
20260506072633 50 350 0.0 0.0 0.00 0.00 0.00 99 1020.1
20260506072131 50 350 0.0 0.0 0.00 0.00 0.00 99 1020.3
20260506071628 50 353 0.0 0.0 0.00 0.00 0.00 99 1020.2
20260506071126 50 353 0.0 0.0 0.00 0.00 0.00 99 1020.2
20260506070622 50 353 0.0 0.0 0.00 0.00 0.00 99 1020.1
20260506070119 50 353 0.0 0.0 0.00 0.00 0.00 99 1020.0
20260506062057 51 352 0.0 0.0 0.00 0.00 0.00 99 1019.7
20260506061552 51 352 0.0 0.0 0.00 0.00 0.00 98 1019.5
20260506061050 51 352 0.0 0.0 0.00 0.00 0.00 98 1019.5
20260506060549 51 352 0.0 0.0 0.00 0.00 0.00 98 1019.4
20260506051017 53 351 0.0 0.0 0.00 0.00 0.00 97 1019.0
20260506050515 53 351 0.0 0.0 0.00 0.00 0.00 96 1019.0
20260506045006 53 351 0.0 0.0 0.00 0.00 0.00 96 1019.1
20260506044504 53 350 0.0 0.0 0.00 0.00 0.00 96 1018.9
20260506044000 54 350 0.0 0.0 0.00 0.00 0.00 96 1018.9
20260506043457 54 350 0.0 0.0 0.00 0.00 0.00 95 1018.7
20260506042955 54 350 0.0 0.0 0.00 0.00 0.00 95 1018.9
20260506042454 54 350 0.0 0.0 0.00 0.00 0.00 94 1018.8
20260506041952 55 350 0.0 0.0 0.00 0.00 0.00 94 1018.9
20260506041450 55 350 0.0 0.0 0.00 0.00 0.00 94 1018.9
20260506040947 55 350 0.0 0.0 0.00 0.00 0.00 94 1018.9
20260506040445 55 350 0.0 0.0 0.00 0.00 0.00 94 1018.8
20260506035940 55 350 0.0 0.0 0.00 0.00 0.00 94 1018.8
20260506035438 56 350 0.0 0.0 0.00 0.00 0.00 93 1018.8
20260506034934 56 350 0.0 0.0 0.00 0.00 0.00 92 1018.8
20260506034432 56 350 0.0 0.0 0.00 0.00 0.00 92 1018.6
20260506033929 57 349 0.0 0.0 0.00 0.00 0.00 91 1018.4
20260506033426 57 349 0.0 0.0 0.00 0.00 0.00 91 1018.6
20260506032923 57 349 0.0 0.0 0.00 0.00 0.00 91 1018.4
20260506032420 57 349 0.0 0.0 0.00 0.00 0.00 90 1018.5
20260506031916 58 349 0.0 0.0 0.00 0.00 0.00 90 1018.4
20260506031414 58 349 0.0 0.0 0.00 0.00 0.00 89 1018.4
20260506030911 58 349 0.0 0.0 0.00 0.00 0.00 89 1018.5
20260506030409 59 348 0.0 0.0 0.00 0.00 0.00 88 1018.3
20260506025906 59 348 0.0 0.0 0.00 0.00 0.00 88 1018.3
20260506025403 60 348 0.0 0.0 0.00 0.00 0.00 87 1018.3
20260506024859 60 348 0.0 0.0 0.00 0.00 0.00 86 1018.2
20260506024357 60 348 0.0 0.0 0.00 0.00 0.00 85 1018.0
20260506023852 60 348 0.0 0.0 0.00 0.00 0.00 84 1018.1
20260506023349 61 349 0.0 0.0 0.00 0.00 0.00 84 1017.9
20260506022846 61 349 0.0 0.0 0.00 0.00 0.00 84 1018.3
20260506022344 61 330 0.0 0.0 0.00 0.00 0.00 82 1018.0
20260506021842 62 328 0.0 0.0 0.00 0.00 0.00 82 1018.2
20260506021338 62 330 0.0 0.0 0.00 0.00 0.00 83 1018.3
20260506020834 62 330 0.0 0.0 0.00 0.00 0.00 80 1018.0
20260506020333 63 346 0.0 0.0 0.00 0.00 0.00 78 1018.1
20260506015830 63 348 0.0 0.0 0.00 0.00 0.00 77 1018.1
20260506015328 63 340 0.0 0.0 0.00 0.00 0.00 78 1017.9
20260506014824 63 5 0.0 0.0 0.00 0.00 0.00 78 1018.0
20260506014321 63 17 0.0 0.0 0.00 0.00 0.00 75 1018.1
20260506013818 64 358 0.0 0.0 0.00 0.00 0.00 80 1017.9
20260506013315 64 26 0.0 0.0 0.00 0.00 0.00 76 1018.1
20260506012811 64 325 0.0 0.0 0.00 0.00 0.00 74 1018.2
20260506012309 64 321 1.0 1.0 0.00 0.00 0.00 74 1018.2
20260506011806 64 348 0.0 0.0 0.00 0.00 0.00 75 1018.2
20260506011302 64 351 0.0 0.0 0.00 0.00 0.00 75 1018.1
20260506010800 64 323 0.0 0.0 0.00 0.00 0.00 75 1018.1
20260506010258 64 6 0.0 1.0 0.00 0.00 0.00 77 1018.0
20260506005754 65 15 0.0 0.0 0.00 0.00 0.00 74 1018.2
20260506005251 64 4 0.0 0.0 0.00 0.00 0.00 77 1018.0
20260506004747 65 68 0.0 0.0 0.00 0.00 0.00 76 1018.3
20260506004245 65 4 0.0 0.0 0.00 0.00 0.00 76 1018.2
20260506003740 64 60 0.0 0.0 0.00 0.00 0.00 77 1018.2
20260506003237 64 64 0.0 0.0 0.00 0.00 0.00 76 1018.2
20260506002734 64 180 0.0 0.0 0.00 0.00 0.00 76 1018.3
20260506002230 64 5 0.0 0.0 0.00 0.00 0.00 78 1018.4
20260506001725 63 330 0.0 0.0 0.00 0.00 0.00 75 1018.6
20260506001224 63 319 0.0 0.0 0.00 0.00 0.00 76 1018.5
20260506000720 64 39 0.0 0.0 0.00 0.00 0.00 75 1018.5
20260506000219 64 323 0.0 0.0 0.00 0.00 0.00 75 1018.7
20260505235715 64 335 0.0 0.0 0.00 0.00 0.00 76 1018.7
20260505235212 64 357 0.0 1.0 0.00 0.00 0.00 77 1018.6
20260505234709 65 194 0.0 1.0 0.00 0.00 0.00 72 1018.9
20260505234207 65 307 0.0 3.0 0.00 0.00 0.00 71 1018.7
20260505233703 65 294 0.0 2.0 0.00 0.00 0.00 76 1018.6
20260505233201 65 47 0.0 0.0 0.00 0.00 0.00 75 1018.9
20260505232658 63 342 0.0 0.0 0.00 0.00 0.00 79 1018.7
20260505232155 62 335 0.0 2.0 0.00 0.00 0.00 78 1018.8
20260505231651 63 162 1.0 2.0 0.00 0.00 0.00 75 1019.0